Home   Weather   Kaiserslautern   Past weeks

Flag for Germany Past Weather in Kaiserslautern, Rhineland-Palatinate, Germany — Yesterday and Last 2 Weeks

Now
81 °F

Partly sunny.


Feels Like: 81 °F
Forecast: 61 / 79 °F
Wind: 6 mph from West

Location: Ramstein

Current Time: Jul 21, 2017 at 5:21:17 pm

Latest Report: Jul 21, 2017 at 3:58 pm


Visibility: N/A

Pressure: 29.88 "Hg

Humidity: 42%

Dew Point: 56 °F

Location of KaiserslauternLocation

Past Weather in Kaiserslautern — Graph

°F

Kaiserslautern Temperature Yesterday

Maximum temperature yesterday: 79 °F (at 5:58 pm)
Minimum temperature yesterday: 59 °F (at 11:58 pm)
Average temperature yesterday: 70 °F

High & Low Weather Summary for the Past Weeks

 TemperatureHumidityPressure
High93 °F (Jul 6, 4:58 pm)100% (Jul 7, 1:43 am)30.27 "Hg (Jul 7, 1:43 am)
Low43 °F (Jul 13, 5:58 am)27% (Jul 8, 4:58 pm)29.76 "Hg (Jul 10, 5:58 am)
Average68 °F74%29.98 "Hg
* Reported Jul 6 2:58 pm — Jul 21 2:58 pm, Kaiserslautern. Weather by CustomWeather, © 2017

Note: Actual official high and low records may vary slightly from our data, if they occured in-between our weather recording intervals... More about our weather records

Advertising

Kaiserslautern Weather History for the Previous 24 Hours

Scroll right to see more
 ConditionsComfort  
Time TempWeatherWind HumidityBarometerVisibility
2:58 pm
Fri, Jul 21
80 °FPartly sunny.3 mph41%29.89 "HgN/A
1:58 pm80 °FPartly sunny.5 mph40%29.90 "HgN/A
12:58 pm77 °FPartly sunny.7 mph44%29.92 "HgN/A
11:58 am76 °FScattered clouds.8 mph44%29.93 "HgN/A
10:58 am75 °FPassing clouds.No wind44%29.95 "HgN/A
9:58 am71 °FSunny.5 mph57%29.95 "HgN/A
8:58 am66 °FSunny.6 mph73%29.96 "HgN/A
7:58 am59 °FSunny.No wind91%29.97 "HgN/A
6:58 am53 °FSunny.No wind100%29.97 "HgN/A
5:58 am52 °FSunny.No wind100%29.97 "HgN/A
4:58 am51 °FClear.No wind100%29.96 "HgN/A
3:58 am52 °FClear.No wind100%29.96 "HgN/A
2:58 am51 °FClear.No wind99%29.96 "HgN/A
1:58 am54 °FClear.No wind100%29.96 "HgN/A
12:58 am55 °FClear.No wind99%29.95 "HgN/A
11:58 pm
Thu, Jul 20
59 °FClear.No wind88%29.95 "HgN/A
10:58 pm65 °FClear.5 mph69%29.93 "HgN/A
9:58 pm69 °FPassing clouds.No wind61%29.92 "HgN/A
8:58 pm74 °FPartly sunny.8 mph50%29.89 "HgN/A
7:58 pm75 °FScattered clouds.13 mph49%29.87 "HgN/A
6:58 pm78 °FWarm.18 mph45%29.86 "HgN/A
5:58 pm79 °FPartly sunny.20 mph47%29.86 "HgN/A
Weather by CustomWeather, © 2017

See weather overviewHow to use our weather pages